| time (UTC) | temp F | wind direction | speed MPH | gust MPH | rain 1hr in | rain 24hr in | rain mn in | humidity % | barometer mb |
| 20260510112503 | 46 | 234 | 2.0 | 6.0 | 0.00 | 0.31 | 0.04 | 69 | 1012.8 |
| 20260510112024 | 46 | 215 | 2.0 | 5.0 | 0.00 | 0.31 | 0.04 | 68 | 1012.9 |
| 20260510111503 | 46 | 226 | 1.0 | 4.0 | 0.00 | 0.31 | 0.04 | 70 | 1012.8 |
| 20260510111003 | 46 | 253 | 1.0 | 3.0 | 0.00 | 0.31 | 0.04 | 73 | 1012.7 |
| 20260510110503 | 46 | 257 | 1.0 | 3.0 | 0.00 | 0.31 | 0.04 | 71 | 1012.7 |
| 20260510110003 | 46 | 257 | 1.0 | 4.0 | 0.00 | 0.31 | 0.04 | 70 | 1012.4 |
| 20260510105503 | 46 | 256 | 2.0 | 6.0 | 0.00 | 0.31 | 0.04 | 70 | 1012.1 |
| 20260510105003 | 45 | 255 | 1.0 | 6.0 | 0.00 | 0.31 | 0.04 | 72 | 1012.1 |
| 20260510104503 | 45 | 254 | 1.0 | 4.0 | 0.00 | 0.31 | 0.04 | 76 | 1012.0 |
| 20260510104003 | 45 | 254 | 1.0 | 4.0 | 0.00 | 0.31 | 0.04 | 77 | 1012.0 |
| 20260510103524 | 44 | 253 | 1.0 | 4.0 | 0.00 | 0.31 | 0.04 | 79 | 1011.8 |
| 20260510103003 | 44 | 253 | 1.0 | 3.0 | 0.00 | 0.31 | 0.04 | 81 | 1011.7 |
| 20260510102503 | 44 | 253 | 1.0 | 3.0 | 0.00 | 0.31 | 0.04 | 83 | 1011.7 |
| 20260510102003 | 44 | 253 | 0.0 | 3.0 | 0.00 | 0.31 | 0.04 | 84 | 1011.5 |
| 20260510101503 | 44 | 253 | 0.0 | 2.0 | 0.00 | 0.31 | 0.04 | 85 | 1011.3 |
| 20260510101003 | 44 | 254 | 0.0 | 1.0 | 0.00 | 0.31 | 0.04 | 85 | 1011.3 |
| 20260510100524 | 44 | 254 | 0.0 | 1.0 | 0.00 | 0.31 | 0.04 | 84 | 1011.0 |
| 20260510100003 | 44 | 254 | 0.0 | 1.0 | 0.00 | 0.31 | 0.04 | 84 | 1010.9 |
| 20260510095503 | 45 | 0 | 0.0 | 1.0 | 0.00 | 0.31 | 0.04 | 83 | 1010.6 |
| 20260510095003 | 45 | 254 | 0.0 | 2.0 | 0.00 | 0.31 | 0.04 | 83 | 1010.5 |
| 20260510094503 | 45 | 254 | 0.0 | 2.0 | 0.00 | 0.31 | 0.04 | 82 | 1010.5 |
| 20260510094003 | 45 | 254 | 0.0 | 2.0 | 0.00 | 0.31 | 0.04 | 80 | 1010.6 |
| 20260510093503 | 45 | 254 | 0.0 | 2.0 | 0.00 | 0.31 | 0.04 | 80 | 1010.4 |
| 20260510093003 | 46 | 254 | 0.0 | 1.0 | 0.00 | 0.31 | 0.04 | 78 | 1010.6 |
| 20260510092503 | 46 | 254 | 0.0 | 1.0 | 0.00 | 0.31 | 0.04 | 76 | 1010.6 |
| 20260510092003 | 46 | 254 | 1.0 | 3.0 | 0.00 | 0.31 | 0.04 | 74 | 1010.3 |
| 20260510091503 | 46 | 253 | 2.0 | 7.0 | 0.00 | 0.31 | 0.04 | 74 | 1010.7 |
| 20260510091003 | 46 | 250 | 2.0 | 7.0 | 0.00 | 0.31 | 0.04 | 76 | 1010.7 |
| 20260510090503 | 46 | 250 | 2.0 | 4.0 | 0.00 | 0.31 | 0.04 | 79 | 1010.7 |
| 20260510090003 | 46 | 250 | 1.0 | 4.0 | 0.00 | 0.31 | 0.04 | 81 | 1010.5 |
| 20260510085503 | 47 | 250 | 0.0 | 1.0 | 0.00 | 0.31 | 0.04 | 82 | 1010.0 |
| 20260510085003 | 47 | 0 | 0.0 | 0.0 | 0.00 | 0.31 | 0.04 | 81 | 1009.7 |
| 20260510084503 | 47 | 0 | 0.0 | 0.0 | 0.00 | 0.31 | 0.04 | 80 | 1009.6 |
| 20260510084003 | 47 | 250 | 0.0 | 2.0 | 0.00 | 0.31 | 0.04 | 80 | 1009.8 |
| 20260510083503 | 47 | 250 | 0.0 | 2.0 | 0.00 | 0.31 | 0.04 | 80 | 1009.9 |
| 20260510083003 | 47 | 246 | 1.0 | 5.0 | 0.00 | 0.31 | 0.04 | 80 | 1009.7 |
| 20260510082503 | 47 | 239 | 2.0 | 5.0 | 0.00 | 0.31 | 0.04 | 82 | 1010.1 |
| 20260510082003 | 48 | 264 | 2.0 | 6.0 | 0.00 | 0.31 | 0.04 | 83 | 1009.9 |
| 20260510081503 | 48 | 290 | 1.0 | 6.0 | 0.00 | 0.31 | 0.04 | 84 | 1010.2 |
| 20260510081003 | 48 | 289 | 1.0 | 4.0 | 0.00 | 0.31 | 0.04 | 85 | 1009.5 |
| 20260510080503 | 48 | 286 | 1.0 | 4.0 | 0.00 | 0.31 | 0.04 | 87 | 1009.3 |
| 20260510080003 | 48 | 280 | 1.0 | 8.0 | 0.00 | 0.31 | 0.04 | 88 | 1009.4 |
| 20260510075503 | 48 | 267 | 2.0 | 8.0 | 0.00 | 0.31 | 0.04 | 89 | 1009.4 |
| 20260510075003 | 49 | 250 | 1.0 | 4.0 | 0.00 | 0.31 | 0.04 | 90 | 1009.6 |
| 20260510074503 | 49 | 249 | 0.0 | 2.0 | 0.00 | 0.31 | 0.04 | 90 | 1009.2 |
| 20260510074003 | 49 | 249 | 1.0 | 3.0 | 0.00 | 0.31 | 0.04 | 90 | 1009.3 |
| 20260510073503 | 49 | 249 | 1.0 | 3.0 | 0.00 | 0.31 | 0.04 | 91 | 1009.4 |
| 20260510073003 | 49 | 249 | 1.0 | 3.0 | 0.00 | 0.31 | 0.04 | 91 | 1009.2 |
| 20260510072503 | 50 | 249 | 0.0 | 2.0 | 0.00 | 0.31 | 0.04 | 91 | 1008.7 |
| 20260510072003 | 50 | 249 | 0.0 | 1.0 | 0.00 | 0.31 | 0.04 | 91 | 1008.6 |
| 20260510071503 | 50 | 249 | 0.0 | 1.0 | 0.00 | 0.31 | 0.04 | 91 | 1008.7 |
| 20260510071003 | 50 | 249 | 0.0 | 1.0 | 0.00 | 0.31 | 0.04 | 91 | 1008.7 |
| 20260510070503 | 50 | 0 | 0.0 | 0.0 | 0.00 | 0.31 | 0.04 | 91 | 1009.0 |
| 20260510070003 | 50 | 0 | 0.0 | 0.0 | 0.00 | 0.31 | 0.04 | 91 | 1008.5 |
| 20260510065503 | 50 | 0 | 0.0 | 0.0 | 0.01 | 0.31 | 0.04 | 91 | 1008.4 |
| 20260510065003 | 50 | 0 | 0.0 | 0.0 | 0.01 | 0.31 | 0.04 | 91 | 1008.2 |
| 20260510064503 | 50 | 249 | 0.0 | 1.0 | 0.01 | 0.31 | 0.04 | 91 | 1008.6 |
| 20260510064003 | 50 | 249 | 0.0 | 1.0 | 0.01 | 0.31 | 0.04 | 91 | 1008.7 |
| 20260510063503 | 50 | 249 | 0.0 | 2.0 | 0.01 | 0.31 | 0.04 | 91 | 1008.4 |
| 20260510063024 | 50 | 249 | 0.0 | 2.0 | 0.01 | 0.31 | 0.04 | 91 | 1008.3 |
| 20260510062503 | 50 | 249 | 0.0 | 2.0 | 0.01 | 0.31 | 0.04 | 91 | 1008.2 |
| 20260510062003 | 50 | 249 | 1.0 | 2.0 | 0.02 | 0.31 | 0.04 | 91 | 1008.3 |
| 20260510061524 | 50 | 249 | 0.0 | 3.0 | 0.02 | 0.31 | 0.04 | 91 | 1008.2 |
| 20260510061003 | 50 | 249 | 1.0 | 4.0 | 0.02 | 0.31 | 0.04 | 91 | 1008.2 |
| 20260510060503 | 51 | 249 | 1.0 | 4.0 | 0.03 | 0.31 | 0.04 | 91 | 1008.2 |
| 20260510060024 | 51 | 249 | 1.0 | 3.0 | 0.03 | 0.31 | 0.04 | 91 | 1008.1 |
| 20260510055503 | 51 | 249 | 2.0 | 5.0 | 0.02 | 0.30 | 0.03 | 91 | 1007.9 |
| 20260510055003 | 51 | 245 | 2.0 | 5.0 | 0.03 | 0.30 | 0.03 | 91 | 1008.3 |
| 20260510054524 | 50 | 240 | 2.0 | 5.0 | 0.03 | 0.30 | 0.03 | 91 | 1008.0 |
| 20260510054003 | 50 | 234 | 1.0 | 4.0 | 0.03 | 0.30 | 0.03 | 91 | 1008.0 |
| 20260510053503 | 50 | 234 | 1.0 | 4.0 | 0.03 | 0.30 | 0.03 | 91 | 1007.9 |
| 20260510053003 | 50 | 232 | 1.0 | 5.0 | 0.03 | 0.30 | 0.03 | 91 | 1007.8 |
| 20260510052503 | 50 | 227 | 1.0 | 5.0 | 0.03 | 0.30 | 0.03 | 91 | 1008.0 |
| 20260510052003 | 50 | 194 | 1.0 | 4.0 | 0.02 | 0.29 | 0.02 | 91 | 1007.8 |
| 20260510051503 | 50 | 169 | 1.0 | 4.0 | 0.02 | 0.29 | 0.02 | 91 | 1007.1 |
| 20260510051003 | 50 | 169 | 1.0 | 2.0 | 0.02 | 0.29 | 0.02 | 91 | 1007.1 |
| 20260510050503 | 50 | 169 | 1.0 | 2.0 | 0.01 | 0.28 | 0.01 | 91 | 1007.8 |
| 20260510050003 | 50 | 169 | 0.0 | 2.0 | 0.01 | 0.28 | 0.01 | 90 | 1007.4 |
| 20260510045503 | 50 | 168 | 0.0 | 1.0 | 0.01 | 0.28 | 0.01 | 90 | 1007.1 |
| 20260510045024 | 50 | 0 | 0.0 | 0.0 | 0.00 | 0.27 | 0.00 | 90 | 1007.3 |
| 20260510044524 | 50 | 0 | 0.0 | 0.0 | 0.01 | 0.27 | 0.00 | 90 | 1007.2 |
| 20260510044003 | 50 | 0 | 0.0 | 0.0 | 0.01 | 0.27 | 0.00 | 90 | 1007.1 |
| 20260510043503 | 50 | 0 | 0.0 | 0.0 | 0.01 | 0.27 | 0.00 | 90 | 1007.0 |
| 20260510043024 | 50 | 0 | 0.0 | 0.0 | 0.01 | 0.27 | 0.00 | 90 | 1006.9 |
| 20260510042503 | 50 | 0 | 0.0 | 0.0 | 0.01 | 0.27 | 0.00 | 90 | 1006.9 |
| 20260510042003 | 50 | 0 | 0.0 | 0.0 | 0.01 | 0.27 | 0.00 | 90 | 1006.5 |
| 20260510041503 | 50 | 0 | 0.0 | 0.0 | 0.01 | 0.27 | 0.00 | 90 | 1006.5 |
| 20260510041003 | 50 | 169 | 0.0 | 1.0 | 0.01 | 0.27 | 0.00 | 90 | 1006.5 |
| 20260510040503 | 51 | 169 | 0.0 | 2.0 | 0.01 | 0.27 | 0.00 | 90 | 1006.3 |
| 20260510040003 | 51 | 169 | 0.0 | 4.0 | 0.01 | 0.27 | 0.00 | 90 | 1006.2 |
| 20260510035503 | 51 | 170 | 1.0 | 4.0 | 0.01 | 0.27 | 0.27 | 90 | 1006.4 |
| 20260510035003 | 51 | 177 | 1.0 | 4.0 | 0.01 | 0.27 | 0.27 | 90 | 1006.5 |
| 20260510034503 | 51 | 184 | 1.0 | 3.0 | 0.00 | 0.26 | 0.26 | 90 | 1006.3 |
| 20260510034003 | 51 | 185 | 0.0 | 2.0 | 0.00 | 0.26 | 0.26 | 90 | 1006.7 |
| 20260510033503 | 50 | 185 | 0.0 | 2.0 | 0.00 | 0.26 | 0.26 | 90 | 1006.8 |
| 20260510033003 | 50 | 0 | 0.0 | 0.0 | 0.00 | 0.26 | 0.26 | 90 | 1006.7 |
| 20260510032503 | 50 | 0 | 0.0 | 0.0 | 0.00 | 0.26 | 0.26 | 90 | 1006.4 |
| 20260510032003 | 49 | 0 | 0.0 | 0.0 | 0.00 | 0.26 | 0.26 | 90 | 1006.5 |
| 20260510031503 | 49 | 0 | 0.0 | 0.0 | 0.00 | 0.26 | 0.26 | 89 | 1006.5 |
| 20260510031024 | 49 | 0 | 0.0 | 0.0 | 0.00 | 0.26 | 0.26 | 89 | 1006.5 |
| 20260510030503 | 49 | 185 | 0.0 | 1.0 | 0.00 | 0.26 | 0.26 | 89 | 1006.5 |
| 20260510030003 | 49 | 185 | 0.0 | 1.0 | 0.00 | 0.26 | 0.26 | 89 | 1006.4 |
| 20260510025503 | 49 | 0 | 0.0 | 0.0 | 0.00 | 0.26 | 0.26 | 88 | 1006.3 |
| 20260510025003 | 49 | 0 | 0.0 | 0.0 | 0.00 | 0.26 | 0.26 | 88 | 1006.0 |
| 20260510024503 | 49 | 0 | 0.0 | 0.0 | 0.00 | 0.26 | 0.26 | 88 | 1006.0 |
| 20260510024003 | 50 | 0 | 0.0 | 0.0 | 0.00 | 0.26 | 0.26 | 88 | 1005.9 |
| 20260510023503 | 50 | 0 | 0.0 | 0.0 | 0.00 | 0.26 | 0.26 | 87 | 1005.8 |
| 20260510023003 | 50 | 0 | 0.0 | 0.0 | 0.00 | 0.26 | 0.26 | 87 | 1005.8 |
| 20260510022503 | 50 | 0 | 0.0 | 0.0 | 0.00 | 0.26 | 0.26 | 87 | 1005.8 |
| 20260510022003 | 51 | 0 | 0.0 | 0.0 | 0.00 | 0.26 | 0.26 | 87 | 1005.7 |
| 20260510021503 | 51 | 185 | 0.0 | 1.0 | 0.00 | 0.26 | 0.26 | 87 | 1005.8 |
| 20260510021003 | 51 | 185 | 0.0 | 1.0 | 0.00 | 0.26 | 0.26 | 87 | 1005.9 |
| 20260510020503 | 51 | 185 | 0.0 | 2.0 | 0.00 | 0.26 | 0.26 | 87 | 1005.9 |
| 20260510020024 | 51 | 184 | 1.0 | 3.0 | 0.00 | 0.26 | 0.26 | 86 | 1005.9 |
| 20260510015503 | 51 | 185 | 1.0 | 4.0 | 0.00 | 0.26 | 0.26 | 86 | 1005.9 |
| 20260510015003 | 52 | 186 | 1.0 | 4.0 | 0.00 | 0.26 | 0.26 | 86 | 1005.9 |
| 20260510014503 | 52 | 187 | 1.0 | 4.0 | 0.00 | 0.26 | 0.26 | 86 | 1005.7 |
| 20260510014003 | 52 | 186 | 1.0 | 4.0 | 0.00 | 0.26 | 0.26 | 86 | 1005.7 |
| 20260510013503 | 52 | 187 | 1.0 | 4.0 | 0.00 | 0.26 | 0.26 | 85 | 1005.7 |
| 20260510013003 | 52 | 187 | 2.0 | 7.0 | 0.00 | 0.26 | 0.26 | 86 | 1005.6 |
| 20260510012503 | 52 | 189 | 2.0 | 7.0 | 0.00 | 0.26 | 0.26 | 86 | 1005.5 |
| 20260510012003 | 52 | 192 | 2.0 | 6.0 | 0.00 | 0.26 | 0.26 | 86 | 1005.5 |
| 20260510011524 | 52 | 193 | 2.0 | 6.0 | 0.00 | 0.26 | 0.26 | 86 | 1005.5 |
| 20260510011003 | 52 | 199 | 3.0 | 6.0 | 0.00 | 0.26 | 0.26 | 86 | 1005.5 |
| 20260510010503 | 52 | 208 | 2.0 | 6.0 | 0.00 | 0.26 | 0.26 | 86 | 1005.4 |
| 20260510010003 | 52 | 209 | 2.0 | 7.0 | 0.02 | 0.26 | 0.26 | 87 | 1005.5 |
| 20260510005503 | 52 | 207 | 2.0 | 7.0 | 0.04 | 0.26 | 0.26 | 87 | 1005.3 |
| 20260510005003 | 52 | 209 | 1.0 | 5.0 | 0.05 | 0.26 | 0.26 | 87 | 1005.1 |
| 20260510004524 | 52 | 205 | 1.0 | 4.0 | 0.07 | 0.26 | 0.26 | 87 | 1004.8 |
| 20260510004024 | 52 | 200 | 1.0 | 4.0 | 0.10 | 0.26 | 0.26 | 87 | 1004.5 |
| 20260510003503 | 52 | 187 | 2.0 | 6.0 | 0.13 | 0.26 | 0.26 | 87 | 1004.5 |
| 20260510003024 | 52 | 192 | 2.0 | 6.0 | 0.16 | 0.26 | 0.26 | 87 | 1004.6 |
| 20260510002524 | 51 | 203 | 2.0 | 7.0 | 0.18 | 0.26 | 0.26 | 87 | 1005.0 |
| 20260510002003 | 51 | 185 | 3.0 | 8.0 | 0.19 | 0.26 | 0.26 | 88 | 1005.0 |
| 20260510001503 | 51 | 172 | 4.0 | 12.0 | 0.21 | 0.26 | 0.26 | 88 | 1004.9 |
| 20260510001003 | 51 | 165 | 5.0 | 14.0 | 0.24 | 0.26 | 0.26 | 88 | 1004.8 |
| 20260510000503 | 51 | 165 | 5.0 | 14.0 | 0.25 | 0.26 | 0.26 | 88 | 1005.0 |
| 20260510000003 | 51 | 174 | 4.0 | 11.0 | 0.24 | 0.24 | 0.24 | 87 | 1005.3 |
| 20260509235503 | 51 | 183 | 3.0 | 7.0 | 0.22 | 0.22 | 0.22 | 87 | 1005.5 |
| 20260509235003 | 51 | 222 | 3.0 | 7.0 | 0.21 | 0.21 | 0.21 | 87 | 1005.3 |
| 20260509234503 | 51 | 247 | 4.0 | 11.0 | 0.19 | 0.19 | 0.19 | 87 | 1005.5 |
| 20260509234003 | 51 | 256 | 5.0 | 14.0 | 0.16 | 0.16 | 0.16 | 86 | 1005.6 |
| 20260509233524 | 51 | 259 | 6.0 | 15.0 | 0.13 | 0.13 | 0.13 | 85 | 1005.7 |
| 20260509233003 | 52 | 267 | 8.0 | 21.0 | 0.10 | 0.10 | 0.10 | 85 | 1005.9 |
| 20260509232503 | 52 | 268 | 9.0 | 21.0 | 0.08 | 0.08 | 0.08 | 83 | 1005.9 |
| 20260509232025 | 52 | 262 | 9.0 | 21.0 | 0.07 | 0.07 | 0.07 | 82 | 1005.8 |
| 20260509231503 | 54 | 265 | 11.0 | 27.0 | 0.05 | 0.05 | 0.05 | 80 | 1005.8 |
| 20260509231024 | 55 | 267 | 11.0 | 27.0 | 0.02 | 0.02 | 0.02 | 75 | 1005.6 |
| 20260509230503 | 58 | 262 | 10.0 | 20.0 | 0.01 | 0.01 | 0.01 | 72 | 1004.6 |
| 20260509230003 | 60 | 264 | 8.0 | 20.0 | 0.00 | 0.00 | 0.00 | 67 | 1004.1 |
| 20260509225524 | 61 | 267 | 6.0 | 15.0 | 0.00 | 0.00 | 0.00 | 66 | 1003.8 |
| 20260509225024 | 62 | 259 | 3.0 | 10.0 | 0.00 | 0.00 | 0.00 | 68 | 1003.3 |
| 20260509224503 | 63 | 214 | 3.0 | 6.0 | 0.00 | 0.00 | 0.00 | 64 | 1003.0 |
| 20260509224004 | 63 | 186 | 2.0 | 6.0 | 0.00 | 0.00 | 0.00 | 62 | 1002.9 |
| 20260509223503 | 63 | 185 | 2.0 | 4.0 | 0.00 | 0.00 | 0.00 | 62 | 1002.9 |
| 20260509223003 | 63 | 182 | 2.0 | 4.0 | 0.00 | 0.00 | 0.00 | 62 | 1002.9 |
| 20260509222503 | 63 | 182 | 1.0 | 4.0 | 0.00 | 0.00 | 0.00 | 63 | 1002.9 |
| 20260509222024 | 63 | 182 | 1.0 | 4.0 | 0.00 | 0.00 | 0.00 | 63 | 1002.6 |
| 20260509221503 | 62 | 182 | 1.0 | 3.0 | 0.00 | 0.00 | 0.00 | 64 | 1002.5 |
| 20260509221003 | 62 | 182 | 1.0 | 3.0 | 0.00 | 0.00 | 0.00 | 64 | 1002.8 |
| 20260509220503 | 62 | 182 | 1.0 | 3.0 | 0.00 | 0.00 | 0.00 | 64 | 1002.9 |
| 20260509220003 | 62 | 182 | 1.0 | 3.0 | 0.00 | 0.00 | 0.00 | 64 | 1002.9 |
| 20260509215524 | 62 | 188 | 1.0 | 4.0 | 0.00 | 0.00 | 0.00 | 64 | 1002.9 |
| 20260509215003 | 62 | 208 | 2.0 | 5.0 | 0.00 | 0.00 | 0.00 | 64 | 1002.9 |
| 20260509214524 | 62 | 234 | 1.0 | 5.0 | 0.00 | 0.00 | 0.00 | 65 | 1002.9 |
| 20260509214003 | 62 | 236 | 1.0 | 3.0 | 0.00 | 0.00 | 0.00 | 65 | 1002.9 |
| 20260509213503 | 62 | 217 | 2.0 | 5.0 | 0.00 | 0.00 | 0.00 | 66 | 1002.9 |
| 20260509213024 | 62 | 228 | 3.0 | 6.0 | 0.00 | 0.00 | 0.00 | 66 | 1003.1 |
| 20260509212503 | 62 | 257 | 3.0 | 8.0 | 0.00 | 0.00 | 0.00 | 66 | 1003.2 |
| 20260509212003 | 62 | 255 | 4.0 | 9.0 | 0.00 | 0.00 | 0.00 | 65 | 1003.3 |
| 20260509211503 | 62 | 259 | 3.0 | 9.0 | 0.00 | 0.00 | 0.00 | 65 | 1003.2 |
| 20260509211003 | 62 | 256 | 4.0 | 10.0 | 0.00 | 0.00 | 0.00 | 65 | 1003.2 |
| 20260509210503 | 62 | 242 | 4.0 | 10.0 | 0.00 | 0.00 | 0.00 | 64 | 1003.2 |
| 20260509204503 | 62 | 242 | 3.0 | 9.0 | 0.00 | 0.00 | 0.00 | 66 | 1003.1 |
| 20260509204012 | 62 | 243 | 4.0 | 9.0 | 0.00 | 0.00 | 0.00 | 64 | 1003.2 |
| 20260509202025 | 64 | 219 | 4.0 | 9.0 | 0.00 | 0.00 | 0.00 | 59 | 1003.3 |
| 20260509201504 | 65 | 238 | 4.0 | 10.0 | 0.00 | 0.00 | 0.00 | 62 | 1003.3 |
| 20260509201024 | 65 | 237 | 5.0 | 11.0 | 0.00 | 0.00 | 0.00 | 58 | 1003.3 |
| 20260509200524 | 65 | 224 | 4.0 | 11.0 | 0.00 | 0.00 | 0.00 | 61 | 1003.4 |
| 20260509200003 | 65 | 223 | 4.0 | 11.0 | 0.00 | 0.00 | 0.00 | 60 | 1003.3 |
| 20260509195503 | 65 | 225 | 5.0 | 11.0 | 0.00 | 0.00 | 0.00 | 60 | 1003.3 |
| 20260509195003 | 65 | 232 | 5.0 | 10.0 | 0.00 | 0.00 | 0.00 | 61 | 1003.4 |
| 20260509194503 | 65 | 231 | 4.0 | 10.0 | 0.00 | 0.00 | 0.00 | 61 | 1003.4 |
| 20260509194003 | 65 | 226 | 4.0 | 10.0 | 0.00 | 0.00 | 0.00 | 61 | 1003.6 |
| 20260509193524 | 65 | 239 | 4.0 | 10.0 | 0.00 | 0.00 | 0.00 | 62 | 1003.9 |
| 20260509193003 | 64 | 234 | 4.0 | 11.0 | 0.00 | 0.00 | 0.00 | 62 | 1003.9 |
| 20260509192503 | 65 | 220 | 4.0 | 11.0 | 0.00 | 0.00 | 0.00 | 62 | 1004.1 |
| 20260509192003 | 64 | 230 | 4.0 | 11.0 | 0.00 | 0.00 | 0.00 | 62 | 1004.0 |
| 20260509191503 | 64 | 251 | 5.0 | 11.0 | 0.00 | 0.00 | 0.00 | 62 | 1004.0 |
| 20260509191003 | 64 | 236 | 4.0 | 12.0 | 0.00 | 0.00 | 0.00 | 61 | 1004.1 |
| 20260509190503 | 64 | 212 | 4.0 | 12.0 | 0.00 | 0.00 | 0.00 | 64 | 1004.3 |
| 20260509190003 | 64 | 231 | 5.0 | 14.0 | 0.00 | 0.00 | 0.00 | 63 | 1004.4 |
| 20260509185503 | 64 | 224 | 5.0 | 14.0 | 0.00 | 0.00 | 0.00 | 65 | 1004.7 |
| 20260509185003 | 63 | 212 | 4.0 | 10.0 | 0.00 | 0.00 | 0.00 | 65 | 1004.6 |
| 20260509184503 | 63 | 219 | 4.0 | 10.0 | 0.00 | 0.00 | 0.00 | 65 | 1004.4 |
| 20260509184003 | 63 | 212 | 4.0 | 10.0 | 0.00 | 0.00 | 0.00 | 66 | 1004.5 |
| 20260509183503 | 63 | 210 | 4.0 | 11.0 | 0.00 | 0.00 | 0.00 | 67 | 1004.5 |
| 20260509183003 | 63 | 218 | 4.0 | 11.0 | 0.00 | 0.00 | 0.00 | 67 | 1004.6 |
| 20260509182503 | 62 | 202 | 4.0 | 10.0 | 0.00 | 0.00 | 0.00 | 66 | 1004.8 |
| 20260509182003 | 63 | 191 | 4.0 | 11.0 | 0.00 | 0.00 | 0.00 | 65 | 1004.7 |
| 20260509181503 | 63 | 222 | 4.0 | 11.0 | 0.00 | 0.00 | 0.00 | 65 | 1004.8 |
| 20260509181003 | 63 | 237 | 4.0 | 9.0 | 0.00 | 0.00 | 0.00 | 65 | 1004.9 |
| 20260509180503 | 62 | 243 | 4.0 | 10.0 | 0.00 | 0.00 | 0.00 | 68 | 1004.9 |
| 20260509180003 | 62 | 244 | 5.0 | 10.0 | 0.00 | 0.00 | 0.00 | 67 | 1005.0 |
| 20260509175503 | 62 | 251 | 5.0 | 12.0 | 0.00 | 0.00 | 0.00 | 67 | 1005.1 |
| 20260509175003 | 62 | 256 | 6.0 | 12.0 | 0.00 | 0.00 | 0.00 | 66 | 1005.2 |
| 20260509174503 | 61 | 241 | 5.0 | 11.0 | 0.00 | 0.00 | 0.00 | 65 | 1005.3 |
| 20260509174003 | 62 | 249 | 6.0 | 15.0 | 0.00 | 0.00 | 0.00 | 65 | 1005.3 |
| 20260509173503 | 61 | 256 | 6.0 | 15.0 | 0.00 | 0.00 | 0.00 | 65 | 1005.3 |
| 20260509173024 | 63 | 236 | 5.0 | 12.0 | 0.00 | 0.00 | 0.00 | 63 | 1005.3 |
| 20260509172503 | 63 | 217 | 4.0 | 10.0 | 0.00 | 0.00 | 0.00 | 65 | 1005.3 |
| 20260509172003 | 62 | 226 | 3.0 | 9.0 | 0.00 | 0.00 | 0.00 | 62 | 1005.3 |
| 20260509171503 | 63 | 240 | 4.0 | 9.0 | 0.00 | 0.00 | 0.00 | 62 | 1005.3 |
| 20260509171003 | 61 | 244 | 4.0 | 10.0 | 0.00 | 0.00 | 0.00 | 65 | 1005.3 |
| 20260509170504 | 61 | 232 | 4.0 | 11.0 | 0.00 | 0.00 | 0.00 | 64 | 1005.4 |
| 20260509170003 | 62 | 231 | 4.0 | 11.0 | 0.00 | 0.00 | 0.00 | 63 | 1005.4 |
| 20260509165503 | 61 | 213 | 4.0 | 11.0 | 0.00 | 0.00 | 0.00 | 63 | 1005.4 |
| 20260509165003 | 62 | 198 | 4.0 | 10.0 | 0.00 | 0.00 | 0.00 | 62 | 1005.5 |
| 20260509164503 | 62 | 237 | 5.0 | 10.0 | 0.00 | 0.00 | 0.00 | 60 | 1005.5 |
| 20260509164003 | 62 | 234 | 5.0 | 10.0 | 0.00 | 0.00 | 0.00 | 61 | 1005.6 |
| 20260509163503 | 63 | 197 | 4.0 | 9.0 | 0.00 | 0.00 | 0.00 | 63 | 1005.5 |
| 20260509163003 | 62 | 204 | 4.0 | 9.0 | 0.00 | 0.00 | 0.00 | 61 | 1005.5 |
| 20260509162503 | 61 | 209 | 4.0 | 14.0 | 0.00 | 0.00 | 0.00 | 63 | 1005.8 |
| 20260509162024 | 61 | 183 | 4.0 | 14.0 | 0.00 | 0.00 | 0.00 | 61 | 1005.8 |
| 20260509161524 | 61 | 173 | 4.0 | 10.0 | 0.00 | 0.00 | 0.00 | 62 | 1005.7 |
| 20260509161003 | 61 | 191 | 4.0 | 10.0 | 0.00 | 0.00 | 0.00 | 64 | 1005.9 |
| 20260509160503 | 60 | 175 | 4.0 | 9.0 | 0.00 | 0.00 | 0.00 | 64 | 1005.9 |
| 20260509160003 | 60 | 166 | 4.0 | 9.0 | 0.00 | 0.00 | 0.00 | 62 | 1006.0 |
| 20260509155503 | 61 | 195 | 4.0 | 9.0 | 0.00 | 0.00 | 0.00 | 65 | 1006.0 |
| 20260509155024 | 60 | 204 | 4.0 | 9.0 | 0.00 | 0.00 | 0.00 | 63 | 1006.0 |
| 20260509154503 | 60 | 214 | 3.0 | 9.0 | 0.00 | 0.00 | 0.00 | 66 | 1006.0 |
| 20260509154003 | 60 | 193 | 4.0 | 9.0 | 0.00 | 0.00 | 0.00 | 65 | 1006.0 |
| 20260509153524 | 60 | 186 | 3.0 | 9.0 | 0.00 | 0.00 | 0.00 | 66 | 1006.0 |
| 20260509153003 | 59 | 211 | 3.0 | 8.0 | 0.00 | 0.00 | 0.00 | 66 | 1006.1 |
| 20260509152503 | 59 | 195 | 3.0 | 9.0 | 0.00 | 0.00 | 0.00 | 68 | 1006.1 |
| 20260509152003 | 59 | 192 | 3.0 | 9.0 | 0.00 | 0.00 | 0.00 | 67 | 1006.1 |
| 20260509151503 | 59 | 215 | 3.0 | 9.0 | 0.00 | 0.00 | 0.00 | 66 | 1006.0 |
| 20260509151024 | 59 | 196 | 3.0 | 9.0 | 0.00 | 0.00 | 0.00 | 69 | 1006.0 |
| 20260509150503 | 58 | 180 | 3.0 | 8.0 | 0.00 | 0.00 | 0.00 | 70 | 1006.0 |
| 20260509150024 | 58 | 186 | 2.0 | 7.0 | 0.00 | 0.00 | 0.00 | 69 | 1006.0 |
| 20260509145503 | 58 | 195 | 3.0 | 7.0 | 0.00 | 0.00 | 0.00 | 71 | 1006.0 |
| 20260509145003 | 58 | 187 | 3.0 | 7.0 | 0.00 | 0.00 | 0.00 | 72 | 1006.1 |
| 20260509144503 | 58 | 174 | 3.0 | 7.0 | 0.00 | 0.00 | 0.00 | 72 | 1006.1 |
| 20260509144003 | 57 | 188 | 3.0 | 10.0 | 0.00 | 0.00 | 0.00 | 72 | 1006.1 |
| 20260509143524 | 57 | 219 | 4.0 | 10.0 | 0.00 | 0.00 | 0.00 | 73 | 1006.2 |
| 20260509143003 | 57 | 240 | 4.0 | 10.0 | 0.00 | 0.00 | 0.00 | 73 | 1006.2 |
| 20260509142503 | 57 | 236 | 4.0 | 10.0 | 0.00 | 0.00 | 0.00 | 72 | 1006.2 |
| 20260509142003 | 58 | 215 | 3.0 | 9.0 | 0.00 | 0.00 | 0.00 | 73 | 1006.2 |
| 20260509141503 | 58 | 205 | 3.0 | 9.0 | 0.00 | 0.00 | 0.00 | 72 | 1006.4 |
| 20260509141003 | 57 | 212 | 3.0 | 8.0 | 0.00 | 0.00 | 0.00 | 73 | 1006.4 |
| 20260509140503 | 57 | 211 | 3.0 | 10.0 | 0.00 | 0.00 | 0.00 | 74 | 1006.4 |
| 20260509140003 | 57 | 215 | 3.0 | 10.0 | 0.00 | 0.00 | 0.00 | 73 | 1006.5 |
| 20260509135503 | 57 | 208 | 3.0 | 10.0 | 0.00 | 0.00 | 0.00 | 73 | 1006.5 |
| 20260509135003 | 57 | 194 | 3.0 | 8.0 | 0.00 | 0.00 | 0.00 | 74 | 1006.4 |
| 20260509134503 | 57 | 180 | 3.0 | 11.0 | 0.00 | 0.00 | 0.00 | 75 | 1006.5 |
| 20260509134024 | 57 | 174 | 4.0 | 11.0 | 0.00 | 0.00 | 0.00 | 75 | 1006.4 |
| 20260509133503 | 56 | 176 | 3.0 | 9.0 | 0.00 | 0.00 | 0.00 | 76 | 1006.3 |
| 20260509133024 | 56 | 169 | 4.0 | 9.0 | 0.00 | 0.00 | 0.00 | 76 | 1006.4 |
| 20260509132524 | 56 | 166 | 4.0 | 9.0 | 0.00 | 0.00 | 0.00 | 77 | 1006.6 |
| 20260509132003 | 56 | 166 | 4.0 | 9.0 | 0.00 | 0.00 | 0.00 | 77 | 1006.7 |
| 20260509131503 | 55 | 170 | 3.0 | 8.0 | 0.00 | 0.00 | 0.00 | 77 | 1006.8 |
| 20260509131003 | 55 | 170 | 3.0 | 8.0 | 0.00 | 0.00 | 0.00 | 78 | 1006.9 |
| 20260509130503 | 55 | 167 | 3.0 | 8.0 | 0.00 | 0.01 | 0.00 | 78 | 1006.9 |
| 20260509130003 | 54 | 164 | 3.0 | 9.0 | 0.00 | 0.01 | 0.00 | 79 | 1006.9 |
| 20260509125503 | 54 | 162 | 3.0 | 9.0 | 0.00 | 0.01 | 0.00 | 80 | 1006.9 |
| 20260509125003 | 54 | 161 | 3.0 | 7.0 | 0.00 | 0.01 | 0.00 | 80 | 1006.9 |
| 20260509124503 | 53 | 161 | 3.0 | 6.0 | 0.00 | 0.01 | 0.00 | 81 | 1006.9 |
| 20260509124003 | 53 | 165 | 3.0 | 6.0 | 0.00 | 0.01 | 0.00 | 81 | 1006.9 |
| 20260509123503 | 52 | 167 | 3.0 | 8.0 | 0.00 | 0.01 | 0.00 | 82 | 1007.0 |
| 20260509123003 | 52 | 166 | 3.0 | 8.0 | 0.00 | 0.01 | 0.00 | 82 | 1007.0 |
| 20260509122503 | 52 | 164 | 2.0 | 7.0 | 0.00 | 0.01 | 0.00 | 83 | 1007.0 |
| 20260509122003 | 51 | 159 | 2.0 | 7.0 | 0.00 | 0.01 | 0.00 | 83 | 1007.1 |
| 20260509121524 | 51 | 161 | 2.0 | 6.0 | 0.00 | 0.01 | 0.00 | 83 | 1007.2 |
| 20260509121003 | 51 | 161 | 2.0 | 6.0 | 0.00 | 0.01 | 0.00 | 84 | 1007.2 |
| 20260509120503 | 50 | 155 | 2.0 | 5.0 | 0.00 | 0.01 | 0.00 | 85 | 1007.2 |
| 20260509120003 | 50 | 156 | 1.0 | 5.0 | 0.00 | 0.01 | 0.00 | 85 | 1007.2 |
| 20260509115503 | 49 | 155 | 2.0 | 5.0 | 0.00 | 0.01 | 0.00 | 85 | 1007.2 |
| 20260509115003 | 49 | 152 | 2.0 | 6.0 | 0.00 | 0.01 | 0.00 | 86 | 1007.1 |
| 20260509114503 | 48 | 151 | 2.0 | 6.0 | 0.00 | 0.02 | 0.00 | 86 | 1007.1 |
| 20260509114003 | 48 | 154 | 2.0 | 5.0 | 0.00 | 0.02 | 0.00 | 87 | 1007.1 |
| 20260509113524 | 47 | 156 | 2.0 | 5.0 | 0.00 | 0.03 | 0.00 | 87 | 1007.1 |
| 20260509113003 | 47 | 159 | 1.0 | 5.0 | 0.00 | 0.04 | 0.00 | 88 | 1007.1 |